Weather History for Steamboat Springs, CO

Change the Weather History Date:

Tuesday, April 2, 2013

  Actual Average Record
Temperature  
Mean Temperature 40 °F -  
Max Temperature 49 °F 47 °F 66 °F (2011)
Min Temperature 30 °F 21 °F -13 °F (1924)
Degree Days  
Heating Degree Days 26    
Moisture  
Dew Point 32 °F    
Average Humidity 88    
Maximum Humidity 100    
Minimum Humidity 46    
Precipitation  
Precipitation 0.00 in - - ()
Sea Level Pressure  
Sea Level Pressure 30.01 in    
Wind  
Wind Speed 2 mph (SE)    
Max Wind Speed 15 mph    
Max Gust Speed -    
Visibility 7 miles    
Events      
Averages and records for this station are not official NWS values.
T = Trace of Precipitation, MM = Missing Value Source: NWS Daily Summary

Daily Weather History Graph

Daily Weather History Graph

Search for Another Location

Airport:

Trip Planner

Search our weather history database for the weather conditions in past years. The results will help you decide how hot, cold, wet, or windy it might be!

Date:

Astronomy

Apr. 02, 2013 Rise Set
Actual Time 6:49 AM MDT 7:33 PM MDT
Civil Twilight 6:21 AM MDT 8:01 PM MDT
Nautical Twilight 5:48 AM MDT 8:33 PM MDT
Astronomical Twilight 5:15 AM MDT 9:07 PM MDT
Moon 1:41 AM MDT (4/2) 11:42 AM MDT (4/2)
Length of Visible Light 13h 39m
Length of Day
12h 44m
Waning Gibbous, 55% of the Moon is Illuminated
Apr 2
Waning Gibbous
Apr 2
Last Quarter
Apr 10
New
Apr 18
First Quarter
Apr 25
Full

Hourly Weather History & Observations

Time (MDT) Temp. Windchill Dew Point Humidity Pressure Visibility Wind Dir Wind Speed Gust Speed Precip Events Conditions
12:15 AM 33.4 °F - 33.1 °F 99% 30.01 in 10.0 mi Calm Calm - N/A   Clear
12:35 AM 32.9 °F - 32.4 °F 98% 30.00 in 1.0 mi Calm Calm - N/A   Overcast
12:55 AM 32.9 °F - 32.9 °F 100% 30.00 in 10.0 mi Calm Calm - N/A   Mostly Cloudy
1:15 AM 32.9 °F - 32.5 °F 99% 30.01 in 7.0 mi Calm Calm - N/A   Scattered Clouds
1:35 AM 32.0 °F - 31.8 °F 99% 30.00 in 0.2 mi Calm Calm - N/A   Overcast
1:55 AM 32.0 °F - 32.0 °F 100% 30.00 in 0.8 mi Calm Calm - N/A   Mostly Cloudy
2:15 AM 31.6 °F - 31.6 °F 100% 30.00 in 0.2 mi Calm Calm - N/A   Overcast
2:35 AM 31.1 °F - 31.1 °F 100% 29.99 in 0.2 mi Calm Calm - N/A   Overcast
2:55 AM 32.0 °F - 32.0 °F 100% 29.98 in 0.2 mi Calm Calm - N/A   Overcast
3:15 AM 30.9 °F 27.5 °F 30.9 °F 100% 29.98 in 0.2 mi ESE 3.5 mph - N/A   Overcast
3:35 AM 30.2 °F 26.7 °F 30.2 °F 100% 29.99 in 0.2 mi ESE 3.5 mph - N/A   Overcast
3:55 AM 30.6 °F 23.1 °F 30.6 °F 100% 29.98 in 0.2 mi East 8.1 mph - N/A   Overcast
4:15 AM 31.8 °F - 31.8 °F 100% 29.97 in 1.0 mi Calm Calm - N/A   Overcast
4:35 AM 30.0 °F - 30.0 °F 100% 29.97 in 0.5 mi Calm Calm - N/A   Overcast
4:55 AM 30.4 °F - 30.4 °F 100% 29.97 in 0.8 mi Calm Calm - N/A   Overcast
5:15 AM 30.9 °F 27.5 °F 30.9 °F 100% 29.96 in 1.8 mi East 3.5 mph - N/A   Mostly Cloudy
5:35 AM 31.8 °F 28.5 °F 31.8 °F 100% 29.97 in 3.0 mi West 3.5 mph - N/A   Overcast
5:55 AM 30.4 °F - 30.4 °F 100% 29.98 in 5.0 mi Calm Calm - N/A   Overcast
6:15 AM 31.1 °F - 31.1 °F 100% 29.97 in 10.0 mi Calm Calm - N/A   Overcast
6:35 AM 31.1 °F - 31.1 °F 100% 29.97 in 10.0 mi Calm Calm - N/A   Mostly Cloudy
6:55 AM 30.9 °F - 30.7 °F 99% 29.97 in 10.0 mi Calm Calm - N/A   Mostly Cloudy
7:15 AM 31.1 °F - 31.1 °F 100% 29.97 in 10.0 mi Calm Calm - N/A   Overcast
7:35 AM 30.7 °F - 30.4 °F 99% 29.99 in 10.0 mi Calm Calm - N/A   Overcast
7:55 AM 31.6 °F 27.0 °F 31.1 °F 98% 29.99 in 10.0 mi North 4.6 mph - N/A   Overcast
8:35 AM 32.0 °F - 31.1 °F 96% 30.00 in 10.0 mi Calm Calm - N/A   Overcast
8:55 AM 33.3 °F - 32.0 °F 95% 30.01 in 10.0 mi Calm Calm - N/A   Overcast
9:15 AM 34.5 °F 29.4 °F 32.0 °F 90% 30.00 in 10.0 mi East 5.8 mph - N/A   Overcast
9:35 AM 35.6 °F 29.2 °F 32.5 °F 89% 30.00 in 10.0 mi ENE 8.1 mph - N/A   Overcast
9:55 AM 34.0 °F 28.8 °F 32.7 °F 95% 30.01 in 5.0 mi East 5.8 mph - N/A   Overcast
10:15 AM 36.3 °F - 33.8 °F 91% 30.00 in 4.0 mi Calm Calm - N/A   Mostly Cloudy
10:35 AM 39.2 °F 37.0 °F 32.9 °F 78% 30.00 in 10.0 mi NW 3.5 mph - N/A   Mostly Cloudy
10:55 AM 40.1 °F 38.0 °F 33.4 °F 77% 30.00 in 10.0 mi NW 3.5 mph - N/A   Scattered Clouds
11:15 AM 40.3 °F 36.3 °F 33.1 °F 75% 30.01 in 10.0 mi NW 5.8 mph - N/A   Scattered Clouds
11:35 AM 41.0 °F 38.0 °F 32.7 °F 72% 30.00 in 10.0 mi WSW 4.6 mph - N/A   Clear
11:55 AM 42.1 °F 40.2 °F 32.0 °F 67% 30.00 in 10.0 mi SSW 3.5 mph - N/A   Clear
12:15 PM 42.1 °F - 32.9 °F 70% 30.00 in 10.0 mi Calm Calm - N/A   Mostly Cloudy
12:35 PM 44.1 °F - 32.0 °F 63% 29.99 in 10.0 mi Calm Calm - N/A   Scattered Clouds
12:55 PM 45.1 °F 43.7 °F 31.6 °F 59% 29.98 in 10.0 mi SSW 3.5 mph - N/A   Clear
1:15 PM 44.6 °F - 31.8 °F 61% 29.98 in 10.0 mi Calm Calm - N/A   Scattered Clouds
1:35 PM 47.3 °F - 30.2 °F 52% 29.97 in 10.0 mi Calm Calm - N/A   Mostly Cloudy
1:55 PM 47.7 °F - 29.5 °F 49% 29.97 in 10.0 mi SSW 3.5 mph - N/A   Scattered Clouds
2:15 PM 48.6 °F - 29.3 °F 47% 29.96 in 10.0 mi SSW 5.8 mph - N/A   Clear
2:35 PM 45.7 °F 43.4 °F 30.2 °F 55% 29.97 in 10.0 mi SW 4.6 mph - N/A   Scattered Clouds
2:55 PM 49.1 °F - 29.3 °F 46% 29.96 in 10.0 mi South 5.8 mph - N/A   Scattered Clouds
3:15 PM 46.4 °F 43.5 °F 29.3 °F 51% 29.97 in 10.0 mi South 5.8 mph - N/A   Scattered Clouds
3:35 PM 44.8 °F 42.4 °F 29.8 °F 56% 29.97 in 10.0 mi South 4.6 mph - N/A   Mostly Cloudy
3:55 PM 43.9 °F 41.3 °F 30.0 °F 58% 29.98 in 10.0 mi SSW 4.6 mph - N/A   Mostly Cloudy
4:15 PM 43.0 °F 38.8 °F 29.5 °F 59% 29.99 in 10.0 mi SE 6.9 mph - N/A   Mostly Cloudy
4:35 PM 41.2 °F 33.4 °F 30.7 °F 66% 29.99 in 10.0 mi ESE 15.0 mph - N/A   Overcast
4:55 PM 37.4 °F 30.8 °F 31.8 °F 80% 30.02 in 10.0 mi East 9.2 mph - N/A   Overcast
5:15 PM 35.1 °F 29.3 °F 33.3 °F 93% 30.02 in 2.5 mi East 6.9 mph - N/A   Overcast
5:35 PM 35.1 °F 29.3 °F 33.8 °F 95% 30.03 in 10.0 mi East 6.9 mph - N/A   Overcast
5:55 PM 34.7 °F 29.6 °F 33.8 °F 97% 30.03 in 10.0 mi ENE 5.8 mph - N/A   Overcast
6:15 PM 34.5 °F 28.6 °F 33.4 °F 96% 30.04 in 10.0 mi ENE 6.9 mph - N/A   Overcast
6:35 PM 34.7 °F 30.6 °F 33.6 °F 96% 30.04 in 10.0 mi ENE 4.6 mph - N/A   Overcast
6:55 PM 34.9 °F - 33.3 °F 94% 30.04 in 10.0 mi Calm Calm - N/A   Overcast
7:15 PM 34.3 °F - 33.1 °F 95% 30.05 in 7.0 mi Calm Calm - N/A   Overcast
7:35 PM 34.0 °F - 33.3 °F 97% 30.05 in 7.0 mi Calm Calm - N/A   Overcast
7:55 PM 33.6 °F - 33.1 °F 98% 30.06 in 10.0 mi Calm Calm - N/A   Overcast
8:15 PM 33.8 °F - 33.3 °F 98% 30.06 in 7.0 mi Calm Calm - N/A   Overcast
8:35 PM 34.0 °F - 33.3 °F 97% 30.06 in 7.0 mi Calm Calm - N/A   Overcast
8:55 PM 33.8 °F - 33.3 °F 98% 30.06 in 10.0 mi Calm Calm - N/A   Overcast
9:15 PM 32.9 °F - 32.4 °F 98% 30.07 in 3.0 mi Calm Calm - N/A   Overcast
9:35 PM 32.9 °F - 32.5 °F 99% 30.08 in 7.0 mi Calm Calm - N/A   Overcast
9:55 PM 32.5 °F - 32.4 °F 99% 30.08 in 0.8 mi Calm Calm - N/A   Overcast
10:15 PM 33.1 °F - 32.9 °F 99% 30.08 in 3.0 mi Calm Calm - N/A   Overcast
10:35 PM 32.9 °F - 32.9 °F 100% 30.08 in 3.0 mi Calm Calm - N/A   Overcast
10:55 PM 33.1 °F - 33.1 °F 100% 30.08 in 1.2 mi Calm Calm - N/A   Overcast
11:15 PM 32.9 °F - 32.9 °F 100% 30.08 in 1.5 mi Calm Calm - N/A   Overcast
11:35 PM 33.1 °F - 33.1 °F 100% 30.08 in 5.0 mi Calm Calm - N/A   Overcast
11:55 PM 33.1 °F - 33.1 °F 100% 30.08 in 1.0 mi Calm Calm - N/A   Overcast